Overview Statistics Trail Chart Weather Telemetry Raw packets
 

This is the latest recevied weather packets stored in our database for station/object OK2ILA-10. If no packets are shown the sender has not sent any weather packets the latest 10 day(s).

<< 71 72 73 74 75 76 77 >>
Time Temp. Humidity Pressure Rain* Wind** Luminosity Snow
1788082309 26.67° C 42% 1018.2 hPa - - - -
1788082305 26.67° C 42% 1018.2 hPa - - - -
1788081709 27.22° C 43% 1018.2 hPa - - - -
1788081705 27.22° C 43% 1018.2 hPa - - - -
1788081109 26.67° C 44% 1018.4 hPa - - - -
1788081105 26.67° C 44% 1018.4 hPa - - - -
1788080509 26.11° C 43% 1018.4 hPa - - - -
1788080505 26.11° C 43% 1018.4 hPa - - - -
1788079909 27.22° C 43% 1018.3 hPa - - - -
1788079905 27.22° C 43% 1018.3 hPa - - - -
1788079309 27.78° C 42% 1018.3 hPa - - - -
1788079304 27.78° C 42% 1018.3 hPa - - - -
1788078708 28.33° C 42% 1018.4 hPa - - - -
1788078704 28.33° C 42% 1018.4 hPa - - - -
1788078115 28.89° C 41% 1018.4 hPa - - - -
1788078104 28.89° C 41% 1018.4 hPa - - - -
1788077508 28.33° C 43% 1018.4 hPa - - - -
1788077504 28.33° C 43% 1018.4 hPa - - - -
1788076908 28.33° C 42% 1018.2 hPa - - - -
1788076903 28.33° C 42% 1018.2 hPa - - - -
1788076307 29.44° C 43% 1018.3 hPa - - - -
1788076303 29.44° C 43% 1018.3 hPa - - - -
1788075707 28.33° C 44% 1018.2 hPa - - - -
1788075703 28.33° C 44% 1018.2 hPa - - - -
1788075107 28.33° C 45% 1018.2 hPa - - - -

* Rain since midnight (hover to see other rain measurements)
** Current wind speed in m/s (hover to see current wind gust speed)